Location: Lavera�t
(43.5291°N, 0.2123°E)
Time: 02:05:03
(UTC+00:00)

Daily predictions for brighter satellites

Satellite Brightness Start Highest point End
(mag) Time Altitude Azimuth Time Altitude Azimuth Time Altitude Azimuth
ATLAS 3B R/B 3.9 03:36:30 37° SE 03:36:30 37° SE 03:40:38 10° SE
CZ-4C R/B 4.3 03:47:08 19° NNE 03:47:08 19° NNE 03:48:50 10° NNE
Atlas Centaur 2 4.3 04:00:45 24° S 04:00:45 24° S 04:04:39 10° SE
Cosmos 1844 Rocket 4.4 04:02:41 24° NNE 04:02:41 24° NNE 04:04:53 10° NNE
ATLAS 5 CENTAUR R/B 3.5 04:17:17 25° E 04:17:17 25° E 04:19:44 10° NE
ADEOS 3.8 04:29:40 10° NNE 04:34:53 65° ESE 04:40:03 10° S
FENGYUN 3A 3.6 04:29:57 10° NNE 04:35:23 79° ESE 04:40:46 10° S
ATLAS 2AS CENTAUR R/B 3.8 04:39:47 34° NNW 04:39:47 34° NNW 04:45:56 10° NNE
Milstar 3 Cent rocket 4.3 04:42:06 18° SSW 04:44:09 21° S 04:50:59 10° SE
Meteor 1-10 Rocket 4.4 04:41:22 30° N 04:44:11 72° ENE 04:49:51 10° SSE
Cosmos 372 Rocket 3.8 04:49:27 74° SSW 04:49:56 89° ESE 04:55:04 10° NNE
CZ-2C R/B 3.4 04:50:56 16° SSE 04:50:56 16° SSE 04:52:19 10° SE
COSMOS 2455 2.7 04:49:17 65° WSW 04:50:05 75° WNW 04:56:09 10° NNE
METEOR-M 4.1 04:44:52 10° NNE 04:50:15 84° ESE 04:55:36 10° SSW
Cosmos 2154 Rocket 4.1 04:47:36 10° S 04:53:49 77° E 05:00:08 10° N
Sich 1 3.9 04:55:07 10° SSE 04:59:24 50° E 05:03:41 10° NNE
ALOS 4.3 04:55:56 10° N 04:56:56 16° N 04:56:56 16° N
ERS-2 3.6 04:57:20 10° SSE 04:59:08 28° S 04:59:08 28° S
Cosmos 2344 4.5 04:55:57 32° NW 05:01:28 65° WSW 05:15:03 10° SSE
Cosmos 1833 Rocket 3.6 04:57:52 19° N 05:01:44 46° ENE 05:07:07 10° SE
Cosmos 2327 Rocket 4.3 04:56:37 10° S 05:02:41 89° W 05:08:49 10° N
Cosmos 2074 Rocket 3.9 04:59:13 10° SSW 05:05:17 57° WNW 05:11:25 10° N
SL-4 R/B 2.3 05:06:43 52° NNE 05:06:43 52° NNE 05:10:17 10° ESE
Cosmos 2082 Rocket 3.8 05:01:52 10° N 05:06:52 31° NE 05:11:53 10° ESE
EXPRESS MD2 3.4 05:07:42 69° NNW 05:08:02 75° NNE 05:14:19 10° ESE
Cosmos 2228 Rocket 3.0 05:11:09 60° SW 05:11:09 60° SW 05:15:05 10° S
Cosmos 1437 Rocket 2.6 05:12:48 72° SSW 05:12:48 72° SSW 05:16:15 10° S
Lacrosse 5 3.6 05:12:41 19° N 05:12:41 19° N 05:16:14 10° NE
EO 1 Delta rocket 4.1 05:12:08 10° SSE 05:16:49 68° ENE 05:21:28 10° N
Meteor 2-6 Rocket 4.3 05:16:02 44° WNW 05:16:52 48° W 05:22:09 10° SSW
Cosmos 2341 Rocket 4.4 05:14:24 10° S 05:20:32 66° E 05:26:43 10° NNE
ATLAS 3B R/B 3.8 05:23:49 24° WSW 05:23:49 24° WSW 05:29:04 10° SSW
USA 307 3.0 05:22:34 46° NW 05:23:44 74° NE 05:28:02 10° ESE
Meteor PRIRODA 3.6 05:23:40 10° NNE 05:27:26 88° ESE 05:31:09 10° SSW
CZ-4B R/B 2.9 05:25:11 10° N 05:29:37 80° WNW 05:33:49 10° SSW
USA 308 2.9 05:28:59 42° NW 05:30:24 81° NE 05:34:43 10° SE
Cosmos 2184 Rocket 4.4 05:25:11 10° SW 05:31:03 39° WNW 05:36:59 10° N
CZ-4C R/B 3.7 05:32:19 19° NNW 05:32:43 19° NNW 05:37:07 10° NNE
Cosmos 2278 Rocket 2.2 05:27:41 10° SSW 05:33:20 87° ESE 05:39:03 10° NNE
SAR-Lupe-4 3.6 05:30:41 10° S 05:34:11 53° W 05:34:39 48° WNW
COSMO-SKYMED 1 2.6 05:30:48 10° S 05:35:03 54° W 05:37:21 25° NNW
Okean O Rocket 4.2 05:35:29 10° NE 05:39:04 23° E 05:42:38 10° SSE
Cosmos 1805 Rocket 3.8 05:35:07 10° SSW 05:39:22 45° WNW 05:43:40 10° N
Envisat 3.8 05:35:08 10° NNE 05:40:07 53° E 05:45:04 10° S
deb Chang Zheng 4 4.0 05:38:30 10° N 05:42:32 37° WNW 05:46:32 10° SW
Cosmos 1844 Rocket 4.1 05:44:24 19° NW 05:44:24 19° NW 05:47:46 10° N
Cosmos 494 Rocket 3.9 05:39:47 11° NNW 05:44:43 87° ENE 05:49:49 10° SSE
YAOGAN 6 3.5 05:41:55 10° NNE 05:45:19 49° E 05:48:42 10° S
Cosmos 1666 Rocket 3.4 05:43:14 10° SSW 05:47:33 78° W 05:51:56 10° N
COSMOS 2406 3.2 05:44:31 16° NNW 05:49:09 63° WSW 05:54:49 10° S
FALCON 9 DEB 3.4 05:49:54 34° W 05:51:04 51° SW 05:54:25 10° SE
BREEZE-M (TANK) 3.4 05:42:28 10° SW 05:51:32 64° SSE 05:54:24 10° ENE
Cosmos 1689 Rocket 2.6 05:49:07 10° SSW 05:51:47 35° W 05:51:47 35° W
USA 305 3.0 05:53:05 25° WNW 05:55:25 64° SW 05:59:40 10° SE
Cosmos 1242 Rocket 2.6 05:56:19 10° N 06:00:00 83° E 06:03:40 10° SSE
ATLAS 5 CENTAUR R/B 2.4 05:58:53 22° W 06:00:29 29° NW 06:04:30 10° NNE
H-2A R/B 2.7 05:57:18 10° NNE 06:01:07 64° ESE 06:04:56 10° S
MOS 1 Rocket 3.5 05:58:34 10° S 06:03:31 68° W 06:08:49 10° NNW
USA 306 3.1 06:01:36 21° WNW 06:04:15 55° SW 06:08:26 10° SE
CZ-2C R/B 3.5 06:00:04 10° SE 06:05:17 50° ENE 06:10:23 10° N
Cosmos 2366 rocket 4.0 06:00:14 10° S 06:06:33 90° W 06:12:50 10° N
Cosmos 1633 Rocket 3.1 06:03:11 10° SSW 06:07:32 57° W 06:11:53 10° N
USA 81 4.1 06:04:18 10° SSW 06:09:27 58° W 06:14:40 10° N
Cosmos 2218 Rocket 3.9 06:06:04 10° S 06:12:17 79° W 06:18:29 10° N
Cosmos 1125 Rocket 3.7 06:08:02 10° SW 06:13:01 45° WNW 06:18:00 10° N
Meteor 1-20 Rocket 4.2 06:08:56 10° SSW 06:14:37 70° WNW 06:20:27 10° N
H-2A R/B 3.2 06:11:35 10° N 06:15:13 38° WNW 06:18:47 10° SW
GENESIS II 4.2 06:11:35 10° SW 06:15:37 80° NW 06:19:39 10° NNE
NOSS 3-1 (C) 4.4 06:10:37 10° NNW 06:18:10 72° NE 06:26:51 10° SE
Cosmos 1269 Rocket 4.0 06:15:29 10° NNW 06:20:48 90° NE 06:26:05 10° SSE
PSLV R/B 4.0 06:19:41 10° N 06:23:16 41° WNW 06:26:46 10° SW
deb Kosmos-1763 4.0 06:23:36 10° NNW 06:27:11 66° WSW 06:30:45 10° S
NOSS 2-1 (E) 2.8 06:24:22 10° SW 06:27:43 80° NW 06:31:12 10° NE
CZ-2C R/B 3.0 06:26:43 10° SW 06:28:59 17° S 06:31:13 10° SE
ATLAS 2AS CENTAUR R/B 4.5 06:27:37 10° NW 06:32:30 17° N 06:37:15 10° NNE
AQUARIUS 4.2 06:29:39 10° NNE 06:34:10 89° WNW 06:38:40 10° SSW
Cosmos 2242 Rocket 3.6 06:31:58 10° N 06:36:23 86° E 06:40:46 10° S
CZ-4B DEB 4.3 06:31:12 10° N 06:36:31 55° WNW 06:41:51 10° SW
COSMOS 2455 4.2 06:33:02 10° WNW 06:37:04 18° NW 06:41:06 10° N
Cosmos 1939 Rocket 4.0 06:38:31 10° NNE 06:42:33 51° E 06:46:34 10° S
Okean 1 3.7 06:39:58 10° NNW 06:43:51 44° W 06:47:41 10° SSW
USA 290 3.2 06:41:07 10° NW 06:43:58 28° WSW 06:46:47 10° SSW
Meteor 1-19 Rocket 4.2 06:40:01 10° NNW 06:45:21 60° W 06:50:38 10° S
Cosmos 1833 Rocket 3.7 06:40:45 10° NW 06:45:22 27° WSW 06:49:58 10° SSW
SL-4 R/B 3.0 06:42:45 10° WNW 06:46:03 28° SW 06:49:09 10° SSE
Cosmos 1703 Rocket 3.5 06:44:12 10° N 06:48:34 87° W 06:52:52 10° S
NOAA 11 4.4 06:44:22 10° NNE 06:49:54 85° ESE 06:55:25 10° SSW
Cosmos 2082 Rocket 2.7 06:45:42 10° NW 06:51:06 44° WSW 06:56:28 10° S
